Location: Sweet Grass
(48.9965°N, 111.9649°W)
Time: 07:23:25
(UTC+00:00)

EO-79 - Pass Details

Date: 03 April 2023
Orbit: 578 x 593 km, 98.0° (Epoch: 03 June)

Event Time Altitude Azimuth Distance (km) Brightness Sun altitude
Rises 09:18:12 0° 19° (NNE) 2,830 ? -30.9°
Reaches altitude 10° 09:20:27 10° 26° (NNE) 1,920 ? -30.7°
Enters shadow 09:22:58 31° 50° (NE) 1,046 ? -30.5°
